Tracking 27422 objects as of 30-May-2023
HD Live streaming from Space Station
objects crossing your sky now

USA 335

Track USA 335 now!
10-day predictions


NORAD ID: 53352
Int'l Code: 2022-091A
Perigee: 626.6 km
Apogee: 643.2 km
Inclination: 70.1 °
Period: 97.3 minutes
Semi major axis: 7005 km
RCS: Unknown
Launch date: August 4, 2022
Source: United States (US)
Launch site: Rocket Lab Launch Complex (RLLC)
Your satellite tracking list
Your tracking list is empty




NASA's NSSDC Master Catalog

Two Line Element Set (TLE):
1 53352U 22091A   23042.66180455 0.00011000  00000-0  14324-2 0    09
2 53352  70.0556 261.9021 0011844 174.0925 186.0024 14.80490919    06
Source of the keplerian elements: McCants